Wind_Speed
11 12 12 12 12 12 12 12 11 11 11 11 11 11 11 11 11 12 12 12 12 13 13 13 9 7 7 8 8 8 9 10 12 11 12 14 12 9 8 7 7 8 8 7 8 8 5 3 6 6 3 1 0 1 1 1 2 3 3 2 3 3 4 5 6 5 3 3 5 4 4 7 5 4 1 1 1 2 2 3 4 3 2 2 1 3 16 31
12 12 12 12 12 12 12 12 12 11 11 11 11 11 11 11 11 11 11 12 12 12 13 13 10 8 8 9 8 8 7 8 10 13 18 19 16 13 9 8 8 9 10 10 11 11 7 3 5 5 3 1 1 0 1 1 2 2 3 2 4 6 5 5 6 4 2 4 5 5 4 6 6 3 1 2 5 4 4 5 4 5 4 2 4 13 24 32
13 13 14 14 14 14 13 13 13 12 12 11 11 11 11 10 10 11 11 12 12 13 13 13 11 8 8 8 8 7 6 5 5 10 12 11 13 18 14 11 10 9 10 10 10 11 7 5 8 7 3 1 2 1 1 1 2 3 3 2 7 7 6 5 6 6 5 4 4 6 3 4 6 3 2 4 6 6 7 7 4 8 11 5 5 13 22 27
14 14 15 15 15 15 15 15 15 14 14 13 12 11 11 10 10 10 10 11 11 12 12 13 12 8 8 8 6 5 4 3 3 4 4 5 2 11 16 15 12 10 10 9 8 9 7 5 7 6 3 1 3 2 2 3 3 2 4 5 7 5 4 8 8 8 7 4 4 4 1 3 6 3 3 3 4 9 9 9 10 12 14 10 7 11 19 21
14 14 15 15 15 16 16 16 16 16 16 15 14 13 12 11 10 10 10 10 10 11 11 13 11 8 8 7 4 4 3 4 3 1 4 5 4 3 12 14 13 11 10 10 9 8 7 5 5 3 2 2 2 2 3 6 4 2 5 8 7 4 4 9 7 6 5 2 3 4 3 5 3 2 5 7 7 11 7 8 12 13 12 11 13 13 15 16
14 14 14 15 15 15 16 16 16 17 17 17 16 16 14 14 13 12 10 10 10 10 10 11 10 8 7 5 3 2 1 1 4 3 4 5 4 2 9 13 14 12 11 12 10 8 6 4 4 2 2 2 3 4 5 4 4 3 6 6 7 6 6 8 4 4 3 2 6 5 4 2 2 5 5 9 15 15 8 8 12 13 12 13 15 15 14 15
14 14 14 14 15 15 15 15 16 16 17 17 17 17 16 16 15 14 13 11 11 10 10 10 9 6 5 3 2 3 3 5 8 7 9 7 4 4 8 13 13 12 12 13 10 6 5 5 3 4 3 1 4 6 5 2 4 6 6 4 6 8 9 10 6 5 3 6 8 3 4 3 6 8 3 8 18 16 11 6 8 9 8 11 13 14 16 17
15 15 15 15 15 15 15 15 15 16 16 16 16 16 16 16 16 16 15 14 12 11 10 9 8 5 4 1 1 3 1 8 12 10 10 7 5 6 9 12 13 13 13 14 13 7 5 5 5 4 2 4 4 4 4 1 2 6 8 5 4 5 8 9 7 7 6 7 6 3 9 9 9 4 6 18 21 13 11 8 7 5 5 10 13 15 16 16
15 16 16 16 16 16 16 16 16 16 15 15 15 15 15 16 16 16 16 15 14 12 11 9 8 5 4 1 4 2 4 8 10 10 8 7 7 8 10 12 13 14 12 13 13 8 5 5 6 5 4 4 4 4 3 1 4 6 7 5 5 6 8 7 7 8 6 5 3 3 13 11 6 2 9 23 21 11 10 10 9 6 6 9 11 14 15 15
15 16 16 16 16 16 16 16 16 16 16 15 15 15 14 14 14 15 15 16 15 13 12 10 9 6 4 2 4 2 7 6 7 8 7 8 10 10 13 13 14 16 12 9 10 10 7 7 6 4 4 2 3 4 2 4 4 4 4 5 7 8 9 6 7 9 4 4 6 7 15 12 3 1 9 19 10 3 8 9 9 8 10 11 10 11 13 15
15 16 17 17 17 17 16 16 17 17 17 16 16 15 14 14 13 14 14 15 15 12 12 10 9 6 5 4 4 5 7 6 7 8 8 10 13 13 14 15 14 16 14 7 9 13 10 7 5 4 2 2 2 3 3 5 2 2 1 6 10 7 9 9 9 9 2 4 8 10 12 11 1 3 13 20 4 4 5 7 8 8 11 11 11 11 10 12
15 16 17 18 18 17 17 17 17 18 18 18 17 16 15 15 14 13 13 14 14 13 11 10 8 7 5 2 6 12 12 11 11 10 10 12 14 14 13 15 15 15 14 8 6 8 9 7 5 4 4 1 1 2 3 3 0 2 2 6 12 7 11 15 9 7 4 3 5 9 5 9 5 10 19 20 5 2 4 8 9 9 11 10 10 10 9 12
14 16 17 18 18 18 17 17 18 18 19 19 18 17 16 16 15 15 14 14 13 12 11 9 8 8 5 2 7 14 18 18 17 15 15 15 14 14 14 15 14 13 13 9 4 2 3 6 7 6 3 2 3 2 1 1 2 3 2 1 8 7 10 12 2 1 4 4 6 8 3 8 10 16 18 15 6 2 7 11 11 9 10 9 9 9 10 12
14 15 16 17 17 17 16 17 18 19 20 21 20 18 17 16 16 16 15 16 13 10 10 7 7 8 5 5 7 8 15 17 18 20 19 17 15 13 13 14 13 12 11 8 5 2 1 4 5 3 1 3 3 4 3 5 3 3 2 1 3 2 9 9 2 4 2 4 7 7 3 9 14 18 15 9 6 6 8 13 12 10 9 9 9 9 11 11
14 15 16 17 16 16 15 16 17 19 21 22 21 19 17 16 16 16 17 17 12 7 6 6 10 7 2 7 8 8 12 13 18 24 22 19 17 11 11 14 12 9 8 7 5 3 3 4 4 2 3 2 1 2 3 4 3 1 2 4 2 3 7 12 5 7 7 4 4 7 4 8 15 20 13 5 5 8 10 13 12 11 10 10 10 9 11 11
14 15 15 15 15 14 15 16 18 20 22 23 22 20 17 16 16 16 16 15 10 6 5 6 11 8 0 5 4 5 10 12 16 20 19 19 17 11 8 10 7 6 5 4 4 4 5 4 1 2 1 3 2 2 3 4 5 2 3 6 5 5 3 8 8 6 9 4 2 6 6 6 11 16 12 3 4 8 9 12 12 11 11 11 10 8 10 10
12 13 14 14 13 14 15 17 20 21 22 22 22 21 17 16 16 14 11 7 3 7 7 5 8 5 2 3 2 5 9 14 15 13 16 18 16 12 7 6 5 6 6 3 5 4 2 2 1 0 1 2 2 5 3 3 6 3 2 4 5 6 4 3 9 6 4 6 6 9 8 10 14 14 11 6 4 6 7 12 11 9 10 10 9 9 9 10
11 11 12 12 13 14 16 18 21 21 21 22 22 21 16 10 8 6 3 7 8 7 4 1 4 3 4 5 6 6 4 10 11 9 14 16 14 12 8 5 5 8 6 3 2 2 1 1 2 1 3 3 3 5 4 7 9 6 5 4 4 6 6 6 9 4 1 4 7 8 9 14 17 16 15 13 8 7 10 11 10 9 10 10 9 10 10 11
9 10 11 12 13 15 16 19 21 19 22 23 20 15 8 2 2 3 7 10 8 5 3 4 5 3 4 7 7 4 2 6 7 8 13 14 12 11 7 5 7 7 5 1 2 2 2 3 4 1 5 8 7 8 12 15 12 9 7 5 5 7 6 8 13 7 3 6 8 10 13 15 17 17 17 16 13 12 14 11 9 10 11 10 10 10 11 13
8 9 11 12 13 15 17 20 20 18 22 24 19 11 2 3 2 2 2 3 5 4 3 5 9 4 4 3 2 4 4 6 6 6 13 15 13 11 5 3 6 3 3 5 4 2 4 4 3 7 12 13 11 13 17 15 9 5 5 6 8 8 8 10 14 11 5 5 9 12 16 17 16 17 17 15 12 13 16 15 14 12 11 13 12 13 14 15
7 9 10 12 14 15 17 21 19 16 20 20 15 7 2 1 1 2 3 5 10 11 8 7 12 10 8 5 4 6 3 3 4 4 12 15 14 11 3 3 5 2 4 6 3 0 3 6 9 16 17 13 9 11 13 10 7 6 6 8 8 7 11 12 13 13 5 5 9 11 15 17 15 16 15 13 13 15 17 17 18 15 12 12 13 16 16 15
7 8 10 11 14 15 17 21 16 15 19 15 11 6 2 1 1 1 1 3 10 11 11 11 11 11 13 14 12 6 1 4 6 3 11 13 9 7 3 5 7 5 4 4 1 1 3 6 15 20 13 5 3 5 7 8 8 7 5 6 7 6 11 11 10 14 5 4 7 10 13 15 14 14 13 13 16 17 17 17 19 16 12 13 14 15 17 15
8 9 10 10 12 15 17 20 14 13 19 12 8 5 1 2 1 2 2 1 7 6 7 9 9 7 12 18 15 9 6 9 7 5 15 15 5 5 5 7 7 4 5 7 7 6 5 8 17 15 4 3 7 5 5 5 5 6 6 5 7 7 8 7 6 8 4 3 6 9 11 12 11 11 11 15 19 17 16 17 18 15 13 16 16 15 15 16
10 10 10 10 12 13 15 18 12 12 18 9 4 5 4 3 1 1 1 1 5 6 6 8 8 6 11 12 10 12 8 7 5 5 16 17 5 2 5 6 5 4 7 13 13 11 10 8 8 7 6 8 11 8 5 6 6 8 8 8 11 11 11 10 6 6 5 4 5 6 12 11 9 12 13 13 16 16 15 16 17 15 15 16 16 16 16 17
12 12 11 11 11 11 15 15 9 13 17 5 2 8 6 2 1 1 1 2 4 6 5 6 5 5 10 6 7 10 4 4 5 4 14 17 8 4 3 4 4 6 12 12 10 10 11 6 4 6 8 9 9 8 7 8 9 7 8 13 17 14 12 12 9 7 5 5 4 2 9 9 7 12 13 10 10 12 11 13 17 17 15 13 15 17 17 17
14 13 12 12 11 12 12 8 6 14 13 3 5 11 6 2 1 2 1 2 5 5 2 3 3 3 6 4 6 7 1 4 4 4 12 14 10 5 2 2 2 6 9 7 5 4 7 7 7 9 9 9 8 7 8 10 9 8 6 13 15 12 9 10 8 4 2 5 3 3 2 10 6 7 11 9 9 11 10 12 15 16 14 12 13 15 16 15
16 14 13 13 12 11 8 4 9 13 6 3 9 10 6 4 2 2 1 3 5 3 3 1 0 2 3 2 4 7 2 5 1 3 4 5 4 2 2 5 3 3 5 2 3 3 5 7 8 9 8 7 6 8 10 10 7 7 4 8 10 9 8 7 6 5 4 3 3 3 5 8 13 7 10 12 11 11 12 14 15 15 14 12 13 15 15 16
16 16 14 14 13 11 9 8 11 8 3 6 10 9 6 5 2 0 1 3 5 1 3 2 0 1 1 1 1 5 2 2 3 1 2 3 1 1 3 7 5 4 3 4 6 5 5 6 9 10 7 5 8 11 8 11 7 7 3 6 6 6 6 5 5 4 2 4 4 4 6 4 14 6 8 10 10 10 13 16 18 17 15 14 14 15 15 15
16 15 14 15 14 14 13 11 10 7 7 8 9 8 5 2 1 3 2 4 3 1 1 1 1 1 2 1 2 1 2 3 2 3 3 2 0 2 3 5 4 4 4 5 9 6 2 4 7 9 7 8 10 7 7 12 9 5 5 5 4 3 2 4 2 2 3 5 6 7 7 3 12 4 5 4 6 9 13 14 15 15 13 13 13 13 13 12
17 16 16 15 13 14 12 13 14 9 8 9 8 8 4 1 1 3 3 5 1 1 0 1 1 0 3 4 2 2 1 1 1 2 3 1 2 4 1 2 3 2 5 3 8 8 3 0 3 6 5 6 5 2 3 7 6 3 6 5 6 5 5 4 2 4 2 8 7 10 12 7 8 4 5 5 5 8 9 8 10 11 12 13 12 11 12 12
19 17 17 17 17 15 9 7 13 10 8 8 5 5 3 1 2 3 7 3 1 2 0 1 1 2 3 4 1 2 1 1 1 2 0 1 2 4 1 1 2 2 3 5 7 7 4 2 2 3 3 4 5 3 2 2 3 5 4 3 3 4 4 4 4 4 1 9 6 10 13 10 9 7 3 5 5 5 7 8 10 11 13 13 11 11 12 11
20 18 18 20 21 19 13 7 7 7 10 8 1 3 1 1 2 6 6 3 1 3 2 2 1 1 2 2 1 2 2 1 1 4 4 3 2 2 3 5 4 1 4 4 4 5 4 7 6 2 1 5 6 3 3 6 3 4 4 4 1 4 3 2 4 1 4 9 4 6 7 7 11 8 4 9 10 6 8 9 11 12 12 11 11 12 10 7
20 19 19 21 22 23 22 17 10 8 11 7 4 3 3 2 5 5 3 2 3 3 2 2 1 3 4 3 3 4 3 2 3 3 2 3 3 4 5 5 5 2 4 3 2 4 4 6 5 3 3 5 8 6 3 2 3 6 6 6 5 3 2 3 4 3 5 7 3 3 4 5 8 5 8 14 14 10 8 9 11 12 11 11 10 10 9 8
15 17 19 22 24 24 24 22 17 13 11 7 5 3 3 5 5 1 3 5 4 2 1 2 2 2 4 2 5 4 3 4 5 5 2 3 2 3 4 6 6 3 2 2 2 1 4 9 5 8 3 6 12 12 8 5 5 7 5 5 5 6 5 4 5 6 7 5 4 1 4 4 4 3 7 10 8 8 5 7 8 8 9 10 9 10 11 11
12 14 17 20 23 24 24 23 20 16 12 6 4 2 4 6 3 0 4 4 2 4 4 1 2 2 3 4 4 4 5 5 3 5 4 4 4 4 4 6 9 6 3 3 3 3 4 10 6 4 2 9 13 10 7 7 2 4 3 4 4 5 6 4 6 6 3 2 4 3 4 5 4 5 8 8 8 9 7 7 7 8 11 10 10 11 12 11
11 11 14 17 21 22 23 23 22 19 14 6 3 3 5 6 3 2 4 2 1 1 3 5 1 2 4 3 3 4 4 4 2 3 3 4 4 6 5 4 9 12 9 6 3 2 4 7 3 1 1 6 8 5 5 5 4 2 3 4 4 4 6 5 6 2 1 4 7 5 7 5 4 9 8 3 6 8 8 8 8 10 11 9 10 11 11 11
8 9 10 14 19 20 21 23 23 19 11 5 4 7 6 5 4 4 3 1 1 2 2 3 3 3 3 3 3 4 2 2 3 4 3 3 3 5 5 3 6 14 15 10 4 4 6 7 4 5 5 4 1 1 1 2 3 5 4 6 3 3 2 3 2 1 2 8 7 7 15 10 4 8 5 5 4 7 8 8 7 8 9 8 9 10 11 11
6 6 8 14 20 18 19 23 23 16 6 2 8 10 6 4 4 4 3 1 1 3 2 4 4 3 4 4 4 3 3 3 3 4 3 2 3 4 5 3 4 10 16 13 5 3 4 8 7 3 3 2 4 2 3 4 1 4 3 3 3 1 3 3 3 3 6 10 5 7 16 12 7 9 6 5 8 8 8 7 6 7 8 7 9 10 12 11
5 4 5 10 17 19 21 24 21 11 3 4 9 9 5 4 4 4 3 2 2 1 2 5 4 3 3 4 3 2 3 3 2 2 1 2 4 2 4 2 1 3 9 9 6 3 1 5 6 1 1 2 3 0 4 3 2 2 3 3 1 3 4 4 3 3 5 10 8 8 11 9 8 7 5 8 9 7 7 6 6 7 7 7 8 8 10 10
3 3 3 4 11 19 24 23 14 6 4 6 8 7 3 2 4 4 5 5 4 2 4 6 6 5 5 5 5 3 2 3 3 3 2 3 5 2 1 0 1 2 4 4 5 3 2 4 6 1 2 1 1 3 5 5 4 1 3 4 3 2 1 1 2 1 3 8 8 8 9 8 6 4 6 8 7 7 7 4 6 7 7 9 9 9 9 9
2 3 3 2 9 20 23 14 5 4 4 4 7 7 4 3 3 3 5 6 4 2 2 4 6 5 3 4 5 3 2 2 4 4 3 4 6 4 1 2 3 1 3 2 1 2 1 3 4 2 3 4 4 5 6 7 6 5 5 6 6 6 4 4 7 5 4 6 7 8 9 7 4 4 6 7 6 7 7 6 8 10 12 14 13 12 11 9
3 4 1 2 14 24 18 5 4 4 4 4 5 4 3 2 3 4 4 4 4 3 1 2 4 4 3 4 5 4 3 3 4 5 4 5 7 6 4 5 5 4 2 1 1 2 3 1 3 5 6 6 8 7 5 6 5 4 4 4 5 5 5 7 9 6 3 4 5 7 9 5 2 7 12 10 10 12 10 8 11 14 14 14 12 12 10 10
3 3 1 3 20 24 10 4 6 4 4 3 2 2 2 2 3 4 4 4 4 3 2 3 5 6 6 7 7 6 5 5 7 8 7 6 8 10 11 10 8 4 2 2 2 2 4 3 2 5 4 5 8 8 6 4 3 3 4 4 5 5 6 8 7 2 2 5 5 7 10 5 1 5 13 15 18 18 12 10 12 13 12 10 9 10 10 11
2 3 2 6 21 19 5 5 7 5 6 3 2 4 3 2 4 6 6 5 5 4 4 4 5 6 7 7 7 8 7 6 8 10 10 7 7 12 15 17 15 8 4 5 4 4 4 3 3 1 4 5 5 5 4 3 3 4 4 5 6 7 7 7 3 1 4 8 9 11 11 6 4 7 12 16 22 23 20 15 11 10 11 10 9 10 12 12
2 3 2 7 17 13 4 5 6 5 6 6 7 7 5 4 5 8 8 6 5 5 4 4 4 6 7 7 8 8 9 8 8 8 8 6 5 6 11 15 15 11 9 9 7 5 5 5 5 5 8 9 9 7 5 4 3 3 4 7 9 11 12 10 6 6 8 10 13 13 11 10 11 12 16 20 23 25 26 23 15 10 10 11 10 11 12 12
1 3 2 3 8 6 4 4 4 4 5 6 7 7 9 10 5 4 6 6 7 7 4 4 4 3 4 7 8 9 10 11 9 6 5 5 4 3 6 11 12 13 14 13 7 3 1 4 8 13 14 13 14 14 10 8 8 8 9 13 14 15 17 14 10 12 13 13 14 14 15 17 17 16 19 23 24 24 26 27 21 13 10 11 11 11 12 12
2 3 2 2 3 5 6 5 5 6 5 6 5 4 9 12 8 4 6 5 7 8 6 5 7 8 8 8 10 11 11 12 13 11 11 9 6 5 6 5 6 9 11 9 6 4 1 5 11 17 19 18 18 20 18 15 16 16 17 19 19 19 20 18 16 18 16 15 15 15 18 21 19 17 21 23 24 24 24 24 22 18 14 11 10 10 11 11
3 2 2 2 2 4 5 4 4 4 4 4 3 4 9 12 10 6 4 3 4 6 5 5 9 14 12 9 8 8 8 11 11 10 9 6 5 6 6 5 4 4 4 4 5 5 3 8 12 16 19 20 19 21 20 19 18 18 18 20 21 22 23 22 23 23 19 17 17 17 19 22 18 17 21 24 25 25 23 22 21 19 17 14 13 13 11 8
2 1 3 3 1 3 2 2 2 2 3 3 2 3 6 10 10 6 2 2 3 3 5 5 4 4 3 2 1 3 4 4 5 3 2 5 7 5 4 6 4 2 3 2 3 2 3 6 11 16 19 20 20 21 21 21 21 19 20 22 23 24 26 27 26 25 23 23 23 22 25 25 19 17 21 23 23 21 19 18 18 18 19 18 17 16 12 9
1 1 2 3 2 3 2 0 1 3 3 3 4 4 3 5 6 3 1 2 2 2 3 2 4 5 4 2 1 1 1 3 1 2 4 6 7 4 3 4 5 7 8 5 3 3 4 5 9 13 14 14 17 19 20 21 21 22 23 24 24 25 26 26 24 21 21 24 26 26 27 23 18 20 23 22 21 19 16 17 18 19 19 16 13 11 11 11
3 3 3 3 4 3 1 1 1 2 3 4 4 3 3 4 3 1 2 4 3 1 2 4 6 5 3 3 2 1 2 3 2 5 4 4 6 4 3 4 6 9 9 6 3 3 4 4 5 8 9 9 11 16 20 22 23 24 25 25 25 25 23 22 22 20 20 22 24 24 21 17 15 18 20 19 19 18 18 20 19 15 12 10 11 11 11 12
3 5 3 1 4 4 2 2 1 2 4 3 1 2 3 2 2 3 3 2 2 4 6 6 5 5 4 6 5 1 0 3 6 7 6 7 8 7 6 7 8 7 6 6 5 3 4 4 4 6 8 8 8 11 15 15 15 15 16 21 25 24 22 21 19 20 23 22 19 17 14 9 8 8 9 11 13 13 14 13 10 9 10 10 10 11 11 11
Wind_Direction
1 2 0 360 360 1 2 2 2 1 2 2 3 3 2 2 0 359 358 359 1 359 360 360 351 336 326 326 321 304 285 265 267 264 247 255 259 248 242 225 206 198 199 198 181 170 152 173 204 185 156 142 193 241 208 160 102 66 103 159 237 204 210 196 197 208 175 266 264 265 225 184 249 274 222 339 320 260 248 261 262 275 12 35 310 143 150 158
355 356 355 354 354 355 355 355 355 354 355 355 357 357 357 356 354 353 352 352 355 355 357 358 353 340 334 335 328 319 298 275 273 266 263 267 262 246 228 216 208 197 194 193 193 179 151 190 196 145 103 124 258 260 168 220 143 141 137 178 231 205 218 202 201 221 188 254 255 261 244 187 221 230 129 237 258 257 230 261 275 261 272 33 95 138 150 158
351 351 351 351 350 351 350 349 349 347 348 348 349 351 352 351 349 348 346 345 347 350 352 351 350 342 338 335 335 332 303 293 285 269 281 288 257 241 229 218 215 208 207 204 205 192 167 174 171 140 98 246 250 131 112 261 196 184 146 210 243 217 237 247 233 238 228 234 246 267 249 189 235 217 140 223 259 256 220 232 217 236 243 204 146 150 156 161
348 348 348 347 346 346 347 346 344 343 342 341 343 344 344 345 345 343 342 341 340 344 346 347 346 340 338 333 337 326 312 337 287 266 331 3 285 233 224 221 218 215 217 211 205 197 180 155 156 142 112 246 289 69 162 228 207 185 163 210 240 201 235 256 241 238 232 217 214 242 263 261 254 193 190 194 266 269 230 222 207 219 230 194 171 173 167 168
344 343 344 343 343 343 343 343 341 340 337 337 338 338 338 338 337 336 336 335 334 338 340 343 342 338 335 332 339 319 355 20 286 280 15 12 21 221 212 215 215 212 208 206 202 191 188 156 125 105 104 217 283 69 222 224 165 168 218 225 239 188 231 256 241 233 219 208 243 252 271 267 255 183 214 190 230 257 226 212 213 218 224 185 175 180 174 178
339 339 340 338 339 339 339 339 337 336 334 334 334 334 334 333 332 329 328 328 327 330 333 338 340 337 330 334 347 328 46 319 265 264 319 341 349 240 198 206 209 207 202 203 203 188 180 135 111 142 140 213 204 193 239 228 155 220 253 242 244 220 237 262 256 240 202 223 257 253 262 267 307 276 234 200 229 247 229 192 202 221 223 183 169 172 177 188
334 335 335 334 335 334 335 335 332 332 331 331 330 330 330 329 328 325 322 322 320 321 325 331 334 327 323 345 359 33 88 256 272 279 288 304 297 237 196 202 203 204 202 200 201 186 156 118 157 176 136 256 220 209 241 240 167 217 257 261 250 226 233 255 266 276 254 242 247 266 307 271 254 275 295 240 242 246 246 214 201 223 212 167 160 175 187 193
330 330 331 332 332 332 333 331 329 328 326 326 326 325 325 325 324 321 319 316 314 314 315 321 324 314 297 315 53 14 18 255 274 288 284 281 258 223 199 201 202 206 203 206 206 184 153 145 186 175 144 249 206 204 246 306 186 215 238 256 262 240 241 258 272 275 268 253 247 291 286 254 232 266 311 268 260 252 243 236 222 206 160 161 176 189 193 198
329 327 328 331 331 333 333 331 329 325 323 323 321 320 319 318 316 316 314 311 311 306 305 311 310 298 270 235 87 4 270 250 272 285 278 261 242 218 204 204 204 206 204 216 212 185 174 185 211 196 197 232 190 215 237 226 246 219 225 257 278 279 278 280 277 263 257 250 200 242 270 264 235 259 282 267 264 256 234 234 228 193 184 193 193 195 196 202
330 329 331 332 333 335 335 333 330 326 325 323 320 319 315 313 309 306 304 304 303 298 297 299 297 284 240 181 103 261 266 263 270 273 268 249 234 217 210 210 208 208 207 214 205 189 183 191 201 171 178 212 194 226 192 183 228 211 222 270 264 278 288 268 262 266 262 249 196 209 265 275 259 189 266 267 269 232 220 236 234 207 220 218 206 207 201 205
333 333 333 335 336 336 337 335 331 329 327 324 323 321 316 312 307 301 296 292 291 289 284 284 288 269 214 163 156 231 270 278 268 267 263 246 232 225 220 217 214 212 210 208 207 205 207 202 162 121 189 229 214 256 234 205 232 248 291 307 281 296 300 267 261 268 255 262 208 190 259 282 288 175 246 259 271 97 211 243 246 226 235 230 218 219 206 214
333 333 334 337 337 338 339 335 332 330 327 326 323 321 319 313 309 300 291 284 283 280 268 266 270 237 196 163 214 240 260 267 268 269 259 246 235 231 227 223 223 222 219 217 221 217 221 218 157 155 225 208 274 289 242 221 350 296 38 323 291 331 308 276 268 255 198 232 191 152 270 288 235 217 239 253 257 78 266 264 257 240 243 241 229 224 215 224
331 332 333 335 336 339 339 336 334 331 327 325 321 321 318 313 310 302 292 283 280 275 260 253 245 211 179 247 239 244 256 259 261 262 253 244 235 231 225 224 227 228 228 227 229 217 212 209 178 185 213 163 252 258 188 11 17 292 33 308 290 340 301 275 272 192 190 201 172 137 270 275 252 243 243 256 256 239 270 267 260 251 249 246 237 232 227 229
330 331 332 333 336 339 339 338 336 332 328 323 319 318 315 311 307 300 293 285 282 273 255 234 211 185 167 253 255 253 257 253 250 249 246 238 227 227 225 222 225 227 234 239 239 259 214 189 163 162 230 181 245 299 338 355 0 293 304 242 290 308 275 285 80 127 204 215 168 145 230 257 266 265 252 251 230 201 244 258 257 255 253 252 243 236 239 233
332 331 332 333 335 339 341 341 337 333 328 321 318 316 312 307 300 295 290 284 284 264 231 190 180 158 115 270 263 258 251 244 245 246 243 235 221 219 227 221 222 227 231 236 232 230 189 159 133 158 260 249 248 319 326 338 349 355 248 266 283 204 265 301 297 179 211 251 153 153 225 252 263 269 263 251 203 191 231 253 255 257 256 256 252 241 246 247
329 329 331 335 337 342 344 343 340 333 327 321 318 315 310 304 295 289 284 281 276 231 177 167 181 162 63 273 260 250 234 229 245 247 238 231 223 217 214 204 200 192 193 199 174 161 155 138 121 168 227 275 197 119 41 350 318 324 210 240 255 224 259 308 297 221 201 209 173 203 228 253 259 266 273 275 202 195 228 255 255 255 256 254 256 249 248 255
326 328 334 340 343 346 348 346 342 335 329 326 322 316 310 302 291 286 281 275 245 181 155 159 177 164 270 265 273 261 229 227 240 240 225 220 217 211 188 162 151 147 137 120 139 139 123 118 134 164 341 278 157 106 65 287 269 280 215 228 247 239 226 275 292 289 182 170 212 229 229 242 253 264 276 270 210 190 226 257 258 254 257 256 257 257 253 251
328 332 340 345 348 350 350 348 344 340 336 332 328 320 311 303 291 282 197 135 104 119 144 150 142 157 264 241 240 248 217 221 225 216 208 201 201 202 180 144 128 124 105 63 110 126 52 37 88 2 303 257 156 126 176 229 236 232 214 222 251 245 230 245 269 282 153 209 222 232 238 245 256 266 273 271 260 250 245 253 264 264 260 258 257 258 256 252
332 337 344 346 350 350 349 349 347 345 342 339 337 326 309 340 44 93 135 135 110 112 191 217 169 165 254 237 235 243 195 185 189 193 187 178 182 183 162 132 117 115 111 102 260 185 138 59 67 153 243 234 201 175 204 226 230 226 220 225 244 252 246 247 259 250 207 249 237 233 245 246 254 259 263 268 268 267 263 260 262 262 261 259 254 253 254 255
333 339 345 347 349 348 348 351 348 346 347 344 343 338 332 56 36 48 84 181 210 211 193 194 198 225 283 259 213 204 199 177 182 187 176 172 163 155 151 102 91 91 135 160 214 229 143 136 168 208 224 225 210 199 215 232 243 248 245 252 252 257 266 257 266 267 203 226 242 232 247 250 249 254 256 263 268 267 267 266 259 251 253 257 253 251 251 251
326 333 341 345 345 346 347 349 348 346 348 348 351 0 111 73 283 275 320 277 257 253 257 229 213 236 259 254 200 182 175 198 223 191 176 174 152 148 188 130 125 204 192 160 175 230 144 169 208 223 225 224 213 209 223 240 252 254 245 261 265 253 264 258 264 274 221 199 253 242 253 257 250 253 256 261 266 262 260 261 261 254 245 251 253 252 251 250
308 316 331 336 339 343 345 348 347 346 348 358 22 50 139 302 238 212 347 284 280 259 249 250 233 246 256 254 246 204 148 250 247 200 174 171 156 173 199 146 171 202 166 146 141 191 180 206 226 229 227 234 241 203 215 233 232 238 236 259 268 251 269 266 252 269 245 175 259 254 255 260 253 254 255 256 257 256 255 253 258 258 249 249 248 249 253 253
289 296 313 320 332 339 342 345 344 346 351 4 36 51 39 345 109 113 98 242 293 266 228 238 227 230 243 252 248 207 218 236 237 223 177 166 168 195 167 165 190 163 147 189 199 195 201 227 234 232 210 218 251 228 209 250 235 216 221 244 260 246 261 267 243 268 263 195 262 268 265 265 260 261 254 250 252 255 258 255 257 257 248 249 247 248 254 254
278 286 297 303 320 331 338 339 335 347 350 352 23 17 11 358 138 105 50 230 284 272 239 219 207 210 222 241 225 195 222 228 217 226 178 164 148 156 174 174 165 153 196 211 210 217 230 235 228 207 177 203 235 242 225 260 254 214 209 225 247 245 243 253 268 306 303 272 285 288 284 273 238 246 250 246 250 253 256 257 260 256 245 249 255 253 251 251
274 278 285 293 306 317 329 329 321 343 344 325 334 353 1 359 188 132 353 312 283 284 275 217 198 229 222 211 178 180 220 238 222 204 171 170 158 139 200 175 153 206 215 218 223 238 247 236 153 165 195 204 217 236 220 228 252 244 213 220 236 244 246 255 280 324 321 292 312 341 297 285 202 216 241 243 247 251 251 251 255 256 248 246 254 256 251 248
270 273 279 285 293 308 322 319 313 337 340 305 331 341 343 341 247 221 19 351 278 265 280 210 181 206 206 172 155 145 67 274 251 149 161 180 178 146 173 182 196 225 206 212 233 244 244 219 186 189 200 196 201 239 224 206 241 271 228 217 230 239 245 251 266 297 258 258 286 101 283 285 256 212 227 231 240 247 251 251 251 254 251 239 241 252 254 253
266 264 270 276 280 296 308 297 311 330 340 317 335 339 331 323 292 260 357 343 282 218 147 243 186 146 176 178 161 136 173 263 16 76 141 172 197 152 185 203 212 227 171 144 270 237 203 204 206 202 193 181 193 238 225 186 212 267 231 195 207 221 227 217 208 218 230 274 298 143 146 274 280 245 201 209 221 238 248 251 252 252 250 244 241 245 250 254
269 264 264 268 270 272 271 278 299 314 314 321 332 333 335 329 286 5 50 285 276 150 127 256 177 106 72 290 189 133 178 283 77 318 335 65 179 129 221 221 193 218 171 148 242 240 164 193 207 190 179 190 207 227 203 156 195 253 197 158 170 191 201 167 164 202 281 344 293 199 139 265 280 252 171 198 208 225 239 241 247 249 249 249 246 246 247 253
271 264 260 263 265 264 260 262 271 283 297 315 328 324 335 334 300 68 90 248 273 46 56 324 159 320 18 120 228 114 59 14 88 271 334 58 320 84 203 222 165 235 258 191 234 255 168 205 193 166 173 212 219 226 173 161 204 233 120 100 69 69 71 89 123 115 36 313 257 200 154 239 282 284 124 169 196 221 235 235 246 252 255 257 253 254 255 255
267 265 264 259 249 249 250 247 251 264 288 295 308 318 325 305 42 76 227 245 301 300 304 28 215 291 87 128 270 323 70 342 34 349 9 80 348 26 188 214 119 216 282 281 261 254 232 195 151 168 189 202 187 160 166 175 189 137 102 65 30 18 26 46 25 70 39 281 243 187 175 187 274 292 133 170 198 212 224 232 254 262 262 263 259 259 256 250
262 263 266 255 239 238 232 236 252 252 254 266 296 339 331 319 86 160 233 245 29 283 262 356 290 64 102 142 252 301 158 285 73 121 142 155 14 23 39 282 69 58 319 301 282 268 250 209 204 219 180 132 112 103 2 22 112 116 107 78 29 333 5 27 352 54 169 264 238 186 179 179 236 258 185 229 242 206 207 221 238 247 252 258 261 258 254 253
260 260 261 257 248 241 230 230 255 234 224 234 23 38 4 313 217 208 241 323 333 244 179 177 222 139 145 129 236 229 162 252 207 155 175 169 166 179 196 202 164 39 297 257 272 300 271 218 208 227 169 147 128 118 350 356 59 108 114 117 95 299 338 356 310 57 213 258 254 176 173 203 243 249 236 262 270 237 209 215 226 235 245 253 258 257 263 280
263 260 257 257 250 240 237 239 243 219 208 189 107 57 87 186 244 218 217 288 242 217 160 149 152 158 141 106 248 220 158 218 204 172 184 144 170 234 251 222 168 188 255 227 303 323 293 259 183 148 263 180 151 169 230 274 176 158 154 154 170 211 235 256 265 270 255 266 288 153 167 253 280 273 228 238 257 257 226 218 228 232 241 251 259 269 289 297
270 259 252 255 251 245 244 242 237 222 198 152 103 74 122 205 251 204 185 229 247 293 343 130 117 146 157 184 231 197 191 239 178 156 181 126 153 250 256 234 198 187 220 216 296 216 259 281 194 162 224 180 176 200 197 150 165 187 163 146 181 188 177 207 229 247 260 279 308 210 177 235 287 294 233 230 262 286 258 240 253 257 262 271 282 289 288 280
276 259 251 253 248 245 243 238 233 216 181 128 83 110 183 220 248 260 216 231 279 306 304 279 129 166 238 260 261 206 211 243 165 146 177 164 189 214 200 207 198 178 152 204 247 167 225 268 238 169 168 165 182 209 172 118 158 223 127 118 220 201 174 219 247 236 241 302 291 238 211 235 252 266 261 251 262 275 274 274 284 278 266 264 272 274 271 275
279 268 256 244 240 241 239 233 226 204 173 125 92 195 224 229 204 194 225 231 219 239 321 312 256 207 260 266 267 241 211 222 186 165 198 195 212 216 202 210 193 181 181 192 221 208 235 271 259 113 244 183 186 203 168 160 200 183 130 183 216 163 158 224 274 295 81 261 259 250 255 274 302 283 277 252 247 260 273 266 251 255 263 266 269 270 272 283
285 272 251 238 239 241 238 231 213 190 169 131 176 210 223 223 197 195 224 245 171 102 77 281 242 202 240 256 262 250 213 222 197 182 206 210 230 213 198 231 195 186 198 207 226 234 237 272 259 184 220 249 275 7 300 270 162 133 175 207 165 82 128 172 247 319 250 247 254 259 264 273 289 279 308 24 320 286 275 262 255 271 283 284 274 272 276 280
293 267 246 246 244 238 232 223 197 173 147 154 215 227 214 199 201 196 202 179 79 67 103 236 238 204 219 240 253 224 192 209 186 186 205 213 236 187 161 225 207 192 211 218 234 246 213 254 267 199 206 302 21 15 297 314 68 135 225 228 118 171 232 163 177 211 228 243 245 242 257 267 249 248 275 298 284 281 281 290 301 290 285 283 282 286 289 290
286 270 262 248 241 233 219 201 177 155 146 196 223 234 203 193 214 199 194 182 147 104 209 232 238 252 257 241 248 232 193 197 179 196 211 208 241 177 123 241 238 213 234 218 223 272 162 234 261 14 351 321 28 196 215 256 312 14 307 304 39 197 200 179 188 178 218 242 247 236 244 257 245 230 230 240 241 241 260 293 302 285 283 281 277 282 286 289
250 257 263 221 220 213 195 177 159 158 200 207 227 231 197 208 230 219 212 199 194 210 219 226 226 239 264 262 263 263 233 237 225 226 213 201 239 291 46 317 81 330 285 199 214 287 15 243 250 344 339 246 194 210 191 195 220 205 237 251 257 238 204 240 239 172 216 241 248 245 239 244 253 219 199 221 226 207 212 254 288 291 290 280 272 267 269 275
236 243 249 220 199 184 168 157 161 193 204 232 240 234 229 229 222 233 227 209 217 232 183 199 217 221 229 250 255 228 207 258 219 218 233 214 235 261 210 138 128 15 351 82 189 288 334 262 265 274 254 233 236 229 198 202 205 188 206 223 223 228 242 267 251 222 219 240 245 253 253 248 264 273 242 219 214 221 225 250 279 283 278 276 274 266 262 265
242 227 224 187 180 166 152 162 218 191 210 233 235 232 224 213 209 216 219 207 214 227 212 210 216 209 196 219 236 212 209 234 204 214 240 214 225 236 196 164 152 134 95 124 203 189 153 172 282 263 252 254 273 275 229 215 210 195 211 214 215 222 217 238 248 240 244 266 263 266 266 244 210 283 284 276 265 266 263 259 269 273 269 265 264 264 265 263
240 241 345 181 179 167 155 227 212 200 236 238 274 259 214 217 232 215 202 200 200 204 222 224 209 215 221 220 224 221 220 222 208 215 231 222 223 227 221 225 221 184 159 230 230 165 142 130 240 263 282 283 285 293 277 224 191 224 238 206 204 220 220 232 244 246 264 271 273 269 261 243 102 293 285 287 285 282 274 253 253 263 265 258 258 265 267 264
264 261 307 197 188 180 178 226 211 223 234 241 279 249 240 250 231 228 220 196 185 192 210 218 211 220 228 218 219 219 209 216 222 220 222 221 220 223 226 234 239 230 204 202 196 193 202 176 152 231 287 281 281 295 282 237 202 229 237 220 223 230 240 254 258 219 242 237 238 253 256 246 258 270 272 278 280 279 276 263 243 241 256 260 256 258 260 263
303 256 253 197 193 194 219 230 227 234 223 234 246 238 250 254 223 230 234 216 198 191 204 234 219 213 217 215 228 229 210 219 240 227 214 223 246 243 232 233 236 232 222 214 192 179 216 200 172 215 246 254 258 252 231 213 214 215 207 218 226 224 230 247 255 247 248 233 227 242 256 251 249 254 261 266 269 273 277 274 261 239 243 256 256 257 262 263
294 253 246 196 195 211 244 242 242 237 221 231 239 231 235 244 248 223 212 223 230 218 228 254 241 233 221 211 231 244 229 230 239 231 222 232 252 261 230 226 231 232 233 229 198 147 256 216 208 227 234 238 247 247 236 226 232 238 235 232 235 233 233 240 247 248 253 254 244 241 248 253 249 246 252 258 262 267 271 275 276 269 257 259 258 254 256 257
257 257 240 218 212 220 230 236 231 227 230 230 225 225 232 240 256 235 198 216 229 218 229 247 233 235 232 221 233 243 238 235 234 235 243 241 241 264 261 238 235 245 249 239 196 153 256 244 228 234 238 240 246 252 252 248 244 245 245 244 245 245 243 244 248 249 252 258 256 243 241 249 248 243 249 256 260 262 265 271 278 280 278 272 262 254 252 256
247 270 279 287 264 223 225 239 240 241 261 249 228 245 246 240 239 231 223 262 246 210 216 236 227 230 240 248 251 252 249 245 244 246 251 270 304 307 301 288 263 258 260 233 196 172 214 241 236 239 244 243 245 251 252 252 251 247 245 247 248 248 248 246 247 247 246 249 257 254 248 249 248 244 248 253 256 258 262 269 275 281 284 279 272 271 271 278
282 278 288 310 279 260 288 350 342 313 289 277 266 251 250 250 246 236 226 300 292 224 225 242 239 241 283 330 321 305 295 257 261 286 352 358 340 324 311 306 305 7 22 322 260 225 228 236 234 243 250 246 244 247 248 249 253 250 246 245 245 246 247 248 249 249 248 250 256 258 256 255 254 251 251 252 255 259 263 268 273 276 277 277 282 291 302 311
302 279 305 335 288 271 310 348 310 318 291 258 245 224 215 242 256 264 223 230 254 267 245 288 6 17 10 30 117 272 357 107 149 302 348 347 332 330 327 314 327 344 340 325 297 267 254 243 240 250 255 247 243 246 247 246 248 250 248 245 245 246 247 249 252 252 251 254 255 255 257 258 256 254 254 255 259 263 267 269 270 273 281 294 314 332 345 347
276 302 314 311 284 279 299 239 252 297 272 235 225 239 233 229 241 322 300 250 237 237 88 51 11 356 343 321 305 232 116 107 212 240 249 275 285 288 284 283 305 318 314 300 285 276 271 275 271 269 266 255 246 245 247 248 247 246 247 246 244 243 243 244 245 245 247 253 255 255 256 257 257 259 261 264 268 270 274 278 282 294 319 355 15 15 12 7
295 308 304 258 277 279 292 325 298 237 251 244 244 305 279 255 27 24 301 273 130 111 85 62 6 341 334 315 316 350 124 252 247 243 233 227 235 239 237 243 251 262 276 286 288 268 253 272 284 273 271 272 260 256 260 258 249 245 243 242 243 244 246 247 247 246 246 248 254 257 259 280 316 332 332 318 308 301 298 300 316 348 9 27 30 16 9 3
Height
839 838 837 836 836 835 834 834 833 832 832 831 830 830 828 828 827 826 826 825 824 823 822 821 820 820 819 819 818 818 818 817 817 817 815 811 811 812 812 812 813 814 815 815 815 816 817 818 818 819 820 821 823 822 822 822 823 827 834 841 840 840 835 823 818 816 814 811 807 805 805 806 805 801 799 799 799 799 800 798 796 795 795 796 795 794 794 795
839 838 837 836 836 835 834 833 833 832 831 830 830 829 828 828 827 826 825 824 824 823 822 821 820 819 819 818 818 817 817 816 816 814 810 808 809 810 811 812 812 813 813 814 814 814 816 817 818 819 821 823 824 823 823 823 823 828 836 840 835 831 823 814 812 809 810 809 805 804 804 805 803 800 800 800 800 799 800 798 797 796 794 796 796 796 795 796
839 838 837 836 835 835 834 833 832 832 831 830 829 828 828 827 826 826 825 824 823 822 822 820 820 819 818 818 817 817 816 816 816 811 806 805 807 807 810 811 811 812 812 813 813 813 815 816 817 819 822 824 824 824 825 824 825 827 833 838 828 820 816 811 810 807 806 806 805 804 804 805 801 799 800 799 799 798 798 795 795 796 791 793 797 797 797 797
839 838 837 836 835 834 834 833 832 831 830 830 829 828 828 827 826 825 824 824 823 822 821 820 820 819 818 817 817 817 815 817 814 807 805 805 805 806 808 809 811 811 812 812 813 813 814 815 816 818 822 826 824 825 826 823 824 826 829 829 820 816 816 808 805 806 804 805 805 803 804 804 800 799 798 798 800 796 792 789 789 789 785 789 796 797 797 797
838 837 837 836 835 834 833 832 831 830 830 829 828 828 827 826 826 825 824 823 822 822 821 820 819 818 818 817 818 816 817 821 813 804 806 805 805 806 807 809 810 810 811 812 812 813 813 814 816 819 822 825 825 825 824 820 821 824 822 818 815 817 815 805 803 805 803 805 804 803 804 801 798 798 796 797 798 788 782 783 782 781 780 784 790 793 795 796
838 837 836 835 834 834 832 832 831 830 829 828 828 827 826 826 825 824 823 822 822 821 820 820 819 818 818 817 818 815 820 822 809 804 806 805 805 805 806 808 809 810 810 811 812 812 813 814 816 820 822 823 824 823 820 818 819 822 818 814 813 815 812 804 802 803 803 805 804 803 801 798 799 797 793 793 789 777 774 777 777 776 776 778 784 789 792 792
838 837 836 835 834 833 832 831 830 829 828 827 827 826 825 825 824 823 823 822 821 820 820 819 818 818 817 817 818 817 821 817 804 804 805 804 806 805 806 807 808 809 809 810 811 811 812 815 817 819 821 822 822 820 818 817 818 821 818 813 811 811 809 804 803 803 804 805 802 803 801 799 800 797 794 788 777 772 773 774 774 774 774 777 781 785 785 785
837 836 835 834 833 832 831 830 829 828 827 826 826 825 824 823 823 822 822 821 820 820 819 818 818 817 817 818 818 820 821 812 803 805 804 804 805 804 806 806 807 808 808 809 808 810 812 814 816 817 820 820 819 818 816 817 819 820 816 812 809 808 806 803 804 803 804 803 802 803 800 798 798 798 794 780 769 770 772 773 773 774 775 776 778 779 781 781
836 835 834 833 832 831 830 829 828 827 826 825 824 824 823 822 822 821 820 820 819 820 818 818 818 817 818 817 819 822 816 806 803 804 803 804 804 804 805 805 806 806 806 808 807 809 811 813 814 814 817 817 817 816 815 818 819 814 812 810 808 806 803 802 802 800 802 801 801 803 798 795 796 798 790 769 763 768 769 770 771 773 774 773 774 775 776 777
836 834 833 833 831 831 829 828 827 826 825 824 823 822 822 821 820 819 818 818 818 818 817 818 817 816 817 816 821 822 809 802 804 803 803 804 803 804 804 804 805 805 806 806 807 808 808 810 810 810 814 815 815 816 815 817 815 811 811 810 807 807 804 801 800 797 800 799 799 801 796 792 795 799 787 762 760 766 766 768 769 771 771 769 771 771 772 772
835 833 833 831 830 830 828 827 826 825 824 822 822 821 820 819 818 818 817 816 816 816 816 816 816 816 816 816 820 817 804 802 804 802 803 803 802 803 802 803 803 803 805 805 806 806 806 808 808 810 813 814 814 815 814 812 811 810 811 809 805 806 803 798 798 797 798 797 794 797 796 792 796 799 782 760 761 767 766 767 768 769 768 766 768 767 769 768
834 833 832 831 830 829 827 827 825 824 823 821 821 819 818 817 816 816 815 814 814 814 814 814 815 814 815 816 815 808 802 803 803 802 803 801 801 802 802 803 803 803 804 804 805 805 806 807 807 811 813 813 814 815 812 810 811 810 811 813 807 807 803 791 792 794 795 796 791 795 799 793 791 786 769 758 763 767 767 767 765 766 764 764 764 764 765 762
834 832 831 830 829 828 827 825 824 823 821 820 819 818 817 816 815 814 813 812 812 812 812 812 813 813 815 814 805 801 801 801 801 801 801 800 801 801 801 802 802 803 804 804 805 805 806 806 807 810 810 812 814 813 810 809 811 810 812 815 812 815 807 786 788 793 793 795 789 793 803 791 778 771 762 760 765 767 768 765 762 763 761 761 761 761 760 758
833 832 831 829 828 827 826 824 823 821 820 819 817 816 815 814 813 812 811 810 810 810 810 811 812 812 815 809 798 799 799 799 799 798 797 798 799 799 800 801 802 803 803 804 805 805 806 806 807 809 809 811 811 809 811 812 812 813 816 817 819 824 807 784 789 794 791 793 788 792 805 793 771 761 759 760 764 767 767 762 760 759 759 758 757 758 755 753
832 831 830 829 827 826 824 823 822 820 818 817 815 814 813 812 811 810 809 809 808 809 808 810 811 812 814 806 796 797 797 796 795 793 795 796 796 798 799 800 801 802 803 804 804 805 805 806 807 809 810 809 809 812 817 817 814 816 820 820 822 825 810 790 787 790 789 790 791 793 800 793 773 758 755 760 763 765 764 759 757 757 757 756 754 754 752 749
832 831 830 828 827 825 824 822 821 819 817 815 813 812 811 810 809 808 807 806 807 808 808 811 810 811 814 805 796 796 795 793 791 790 793 794 795 797 797 799 801 801 803 803 804 805 805 806 808 811 810 808 811 816 821 824 820 820 822 820 819 820 818 803 786 784 786 788 792 792 791 786 772 757 755 761 762 762 762 757 755 756 754 753 752 751 749 747
831 830 829 828 827 825 823 822 820 818 815 813 811 809 808 807 806 805 805 805 806 807 808 809 808 811 809 800 796 794 790 789 788 789 790 792 794 796 797 799 800 801 802 803 804 805 805 807 811 812 812 812 814 817 826 833 826 820 822 822 819 816 818 810 789 782 786 787 788 789 788 780 765 755 755 758 759 761 761 755 753 754 753 751 750 749 747 745
830 830 828 827 826 825 823 821 819 817 814 812 809 807 806 805 804 804 804 805 806 808 811 809 810 815 807 795 793 789 785 786 786 787 789 790 793 795 796 798 800 801 803 805 805 806 808 810 813 815 814 814 815 818 826 826 815 812 815 817 817 813 814 812 797 785 785 787 787 789 790 782 769 761 758 756 757 759 757 753 752 752 751 750 748 747 744 742
830 828 828 827 825 824 822 821 819 816 814 810 808 806 804 804 804 803 804 804 805 806 807 805 805 808 800 789 786 784 784 785 785 786 787 789 792 794 796 797 799 801 805 809 808 807 809 813 818 819 815 810 811 815 812 804 800 804 807 809 811 809 808 805 794 784 784 788 788 787 784 777 772 766 760 756 755 755 752 752 752 750 748 746 745 744 740 738
828 828 827 826 825 823 822 820 818 816 814 810 807 805 803 805 804 803 806 804 800 797 796 797 795 793 789 785 784 784 784 784 785 786 787 788 790 793 796 797 800 803 806 807 808 808 808 815 819 812 803 799 801 804 799 795 799 804 808 809 809 809 806 797 788 782 784 788 784 780 776 770 767 762 757 754 753 752 749 747 746 745 745 742 740 738 735 732
827 827 826 825 824 823 821 820 818 816 814 811 808 806 807 809 807 806 808 802 795 792 792 792 791 788 785 784 783 782 783 784 784 785 786 787 789 793 795 797 803 806 806 806 808 809 809 815 812 797 788 790 795 798 798 800 803 805 809 810 809 811 803 792 787 781 782 789 782 775 775 769 765 760 755 754 753 748 743 741 737 736 740 737 735 733 728 725
827 826 825 825 823 822 821 820 818 817 815 813 811 811 813 813 811 811 811 805 795 790 791 789 789 788 783 781 781 781 783 784 783 784 786 787 789 791 793 797 802 803 805 807 809 812 815 815 802 787 787 792 795 798 802 804 806 807 811 813 812 809 798 788 785 779 782 788 780 774 773 765 761 758 755 753 748 740 736 735 731 730 735 733 729 727 722 720
826 824 825 824 822 822 821 819 819 817 815 814 813 814 815 814 813 813 813 811 800 788 786 785 785 786 782 778 777 780 783 781 780 782 783 785 789 791 792 796 800 801 804 805 804 809 813 806 792 787 793 797 797 798 802 804 807 808 809 812 809 802 798 791 782 776 781 785 778 776 773 763 759 757 754 750 741 735 733 730 728 727 729 725 722 720 717 715
824 824 824 822 822 821 820 820 818 817 816 815 815 815 814 814 813 814 813 810 801 788 780 778 778 778 775 773 773 777 779 777 777 778 778 781 787 791 790 792 799 802 800 797 796 798 795 789 786 790 795 797 798 799 802 804 804 802 804 806 800 794 795 791 783 780 782 782 778 779 772 756 752 754 748 742 737 733 732 729 726 724 722 720 717 714 712 709
822 823 822 822 822 820 820 819 817 817 816 815 816 815 814 814 813 815 814 809 801 788 777 774 774 772 768 769 771 773 777 776 773 774 775 777 781 786 789 789 794 797 794 793 796 796 790 785 786 790 793 796 799 800 801 802 798 796 798 794 787 786 789 788 786 789 790 785 781 784 776 748 736 744 743 736 735 733 730 728 723 718 716 717 715 708 705 703
821 821 820 821 820 819 820 817 816 817 815 815 816 814 815 814 813 815 814 812 801 784 775 773 771 768 765 768 770 772 779 777 771 771 773 775 775 779 786 788 787 788 789 791 794 792 787 783 783 786 789 794 801 802 797 796 797 795 789 781 781 786 788 788 789 792 791 787 784 787 786 761 733 734 738 733 734 732 727 726 720 714 712 712 711 704 699 697
819 819 819 819 819 819 819 817 816 816 815 816 815 815 816 813 815 815 812 814 797 773 770 773 770 766 765 768 767 770 780 776 770 774 774 775 775 775 782 786 785 784 783 788 791 785 780 780 783 786 788 794 801 797 786 790 797 791 782 776 777 781 785 787 789 792 790 788 789 785 788 781 744 723 727 725 727 730 723 719 713 709 707 706 705 701 696 693
817 817 817 817 817 818 818 817 817 816 816 816 815 816 815 813 817 813 814 817 789 761 765 769 766 764 763 768 767 768 776 773 771 777 775 776 777 776 781 782 783 782 779 784 787 777 772 777 780 783 791 795 791 780 776 786 790 783 782 783 780 780 783 786 786 791 795 794 793 785 786 786 745 711 718 721 724 729 721 712 704 699 700 699 698 695 693 691
815 815 815 816 816 816 816 816 816 816 815 815 816 816 814 816 815 811 822 819 779 757 765 765 764 767 766 769 769 768 773 774 775 777 776 777 776 777 782 781 782 783 780 781 780 773 772 775 777 779 785 784 775 773 775 779 780 779 784 785 785 787 786 790 787 788 796 791 786 782 783 781 740 706 719 727 726 726 716 709 702 696 696 694 692 691 690 689
812 813 813 814 814 814 814 814 814 814 815 814 815 815 815 817 814 818 829 810 773 764 769 766 767 770 769 771 773 771 773 775 778 778 778 779 778 778 780 780 781 782 783 783 779 775 775 778 779 775 773 770 770 779 784 780 779 781 784 781 785 790 789 794 793 790 796 785 772 770 772 777 750 716 720 723 716 714 710 707 703 699 696 692 690 688 685 684
810 810 811 811 811 811 812 812 811 813 815 814 814 816 817 816 816 824 819 788 771 773 770 769 773 772 771 775 774 774 775 775 777 778 778 780 781 781 782 781 783 786 787 785 780 776 776 778 776 767 766 768 770 779 786 788 785 781 782 780 784 789 790 796 798 799 800 779 760 760 765 773 754 719 713 711 704 706 707 704 698 694 692 687 687 686 679 678
807 808 808 809 808 809 809 809 810 812 813 813 816 816 819 823 819 814 798 776 773 775 768 770 775 773 774 777 775 775 776 775 775 777 777 781 784 783 783 780 781 786 785 782 779 774 771 769 767 764 765 767 767 775 785 787 786 783 784 785 791 797 797 799 798 800 796 773 760 767 771 765 738 710 709 707 700 699 700 699 694 690 688 683 682 680 676 678
804 805 806 805 805 806 806 807 809 811 811 812 816 817 825 832 816 796 787 779 774 770 766 768 771 773 776 776 773 773 775 774 774 776 776 781 786 783 782 781 779 780 780 781 781 773 764 760 764 767 764 761 762 771 779 778 781 784 780 782 791 799 802 802 796 794 785 767 764 775 773 756 727 706 703 699 694 693 693 694 693 690 688 683 680 680 679 679
801 802 802 802 802 803 804 806 808 808 811 813 816 820 828 826 805 789 786 780 770 765 766 767 770 773 774 772 769 768 771 770 770 775 777 782 787 783 780 781 782 779 779 784 783 779 772 760 757 758 754 755 757 756 759 763 773 777 771 773 779 780 785 787 779 772 764 757 765 777 768 745 723 707 699 694 693 693 692 693 693 693 692 689 687 685 682 677
799 799 799 799 800 801 802 805 805 807 810 813 817 823 822 810 797 792 786 777 772 768 767 768 770 773 773 771 769 765 764 765 768 774 777 779 781 776 771 772 776 778 780 784 780 779 777 759 747 751 751 752 752 746 748 757 768 774 770 772 772 765 765 766 761 755 758 761 763 765 754 732 715 702 696 697 695 691 692 693 694 692 689 688 687 683 678 675
797 797 797 796 795 798 800 802 803 805 807 811 820 822 812 798 791 791 782 774 773 771 770 772 771 774 775 771 770 766 761 764 770 773 775 777 773 769 767 765 767 770 770 773 770 768 770 757 748 755 755 751 751 748 748 751 757 769 774 768 763 760 757 759 760 758 765 769 751 740 736 725 713 699 691 695 695 691 692 689 688 687 684 687 687 682 680 677
796 795 794 793 793 795 797 799 801 804 805 810 814 809 798 789 785 783 778 773 774 772 775 779 773 770 773 770 768 768 765 766 771 771 771 774 767 761 763 759 759 762 756 757 760 759 761 755 748 752 751 752 760 757 752 752 754 761 765 756 754 761 760 762 769 766 767 767 746 729 725 721 720 709 693 693 693 688 686 684 686 688 687 688 686 683 682 679
794 794 792 789 790 792 794 796 799 802 807 809 805 794 786 783 780 778 775 773 774 775 779 781 774 766 769 771 766 765 766 768 771 770 768 769 760 751 754 753 753 757 751 750 756 755 759 757 749 748 751 755 762 760 755 757 758 758 755 750 753 760 759 761 770 767 763 760 746 731 723 718 718 708 694 693 691 684 682 684 687 686 686 688 686 684 683 680
794 794 790 784 785 787 790 793 796 801 805 803 798 789 780 778 777 775 774 773 774 779 780 778 774 769 767 768 766 765 766 767 769 769 767 767 759 747 748 750 751 755 752 755 759 754 757 761 753 752 759 760 761 760 757 756 759 761 759 756 755 754 753 755 756 752 750 747 739 732 725 713 702 694 690 690 687 684 683 685 686 684 684 687 686 684 682 680
793 793 787 781 782 785 787 791 795 799 798 791 786 781 776 776 775 772 771 771 772 774 776 774 772 772 769 767 768 769 769 768 768 770 767 763 759 751 748 750 753 755 753 756 760 756 758 761 756 757 763 762 757 755 754 752 755 760 760 758 758 754 752 753 750 744 741 739 734 731 724 708 691 685 684 683 682 685 686 686 685 683 682 681 680 680 680 678
792 792 785 780 782 784 787 792 793 793 790 783 778 776 774 773 772 771 770 770 770 769 771 771 769 770 770 769 769 769 771 771 769 769 767 763 760 757 754 752 754 756 754 756 759 760 762 762 760 759 758 755 750 747 748 748 748 752 754 752 752 751 752 754 749 737 734 733 727 725 723 706 688 681 678 679 683 685 685 685 684 682 680 678 677 677 676 676
791 789 784 781 783 783 787 790 788 786 784 779 774 772 772 770 769 770 769 770 771 770 771 771 769 769 770 769 768 768 770 770 768 768 768 763 760 757 753 753 754 755 756 759 759 759 763 768 770 766 758 754 750 746 748 748 746 748 749 746 746 748 749 751 745 734 731 731 723 722 724 706 685 679 676 675 678 678 680 683 681 679 678 676 676 675 674 673
790 787 783 782 783 783 786 786 783 783 781 776 772 771 771 770 769 768 768 769 771 771 771 770 769 768 767 766 766 766 768 767 763 762 763 762 757 751 747 747 749 751 754 757 756 756 761 769 773 769 761 756 752 748 747 748 748 748 746 743 744 743 741 741 739 735 736 735 730 730 726 706 688 684 680 676 675 674 676 679 679 677 676 676 678 676 673 670
790 786 783 783 783 783 783 779 777 780 779 776 775 773 771 770 768 766 766 767 767 767 768 767 765 765 763 763 763 763 764 763 759 754 756 757 751 744 742 742 744 748 750 749 748 749 754 761 767 769 765 757 753 750 748 748 747 746 742 740 739 739 738 738 737 739 739 736 735 734 725 709 696 690 687 683 677 672 670 672 676 677 675 674 676 674 671 670
791 787 782 781 782 782 778 772 771 774 775 776 776 774 772 769 765 762 763 764 763 763 764 763 761 761 760 760 760 759 758 759 756 751 751 752 747 741 740 741 742 745 744 742 741 743 746 748 753 760 759 753 748 744 741 740 740 740 738 736 734 735 736 735 736 738 733 726 725 723 715 705 698 694 692 686 679 673 666 662 666 672 673 671 671 669 668 667
792 788 782 779 779 779 776 772 772 773 773 774 774 771 770 768 762 760 762 763 761 761 762 760 759 760 760 760 760 759 757 756 754 751 750 750 747 742 739 739 740 740 740 741 743 747 750 745 742 743 741 737 733 727 725 728 731 734 734 730 729 728 728 729 730 726 720 715 711 707 705 700 697 696 691 682 677 674 665 657 658 664 667 667 667 666 665 663
793 788 781 779 777 774 772 772 772 772 770 771 770 765 764 765 762 760 761 760 758 758 761 761 760 760 759 757 758 756 753 753 753 751 749 745 742 740 738 739 741 740 740 744 745 750 755 748 739 737 734 729 726 721 720 724 726 728 729 727 726 724 722 726 724 716 714 713 702 695 698 698 694 692 688 680 674 669 663 659 657 658 660 662 662 662 662 661
792 787 780 779 779 774 771 771 772 772 771 772 770 764 761 761 761 761 760 758 756 757 759 761 759 757 757 758 759 758 753 750 750 749 751 755 756 753 746 741 741 741 743 746 745 747 751 744 736 734 731 728 726 724 722 722 721 721 723 723 721 720 719 719 714 708 710 708 696 691 694 692 688 688 684 676 669 664 662 660 658 656 657 659 658 659 661 662
790 788 783 781 782 779 776 776 777 776 775 775 774 770 766 763 761 761 761 760 760 758 756 758 760 763 768 769 769 769 764 761 761 760 766 776 776 770 761 751 745 746 750 752 749 746 745 739 732 729 727 724 723 721 720 720 719 718 718 716 714 713 710 707 703 701 703 698 691 689 689 683 680 681 675 667 662 660 661 660 659 657 655 655 657 659 662 665
790 789 786 785 784 782 780 780 779 780 778 775 773 771 768 767 764 762 762 763 764 760 756 760 767 771 773 773 773 774 773 775 779 777 778 783 779 774 773 765 759 758 759 759 755 749 745 736 727 726 726 722 719 718 717 717 717 715 711 709 709 707 704 701 698 698 698 692 686 686 686 680 674 670 665 661 659 659 661 660 658 656 655 659 664 668 671 672
791 790 789 790 787 781 780 780 778 780 779 773 771 769 766 767 767 767 767 763 761 762 762 768 774 773 772 771 772 774 776 781 785 782 781 784 781 778 778 773 769 768 765 760 755 752 750 741 732 731 728 718 715 717 715 713 712 711 707 704 702 700 696 693 690 689 689 686 683 684 682 674 668 665 662 662 662 662 663 661 659 663 669 675 679 680 680 680
790 790 789 791 789 783 782 783 780 780 776 770 771 770 767 768 771 772 771 764 761 765 768 772 775 773 773 773 771 773 776 778 778 777 776 777 776 775 776 773 772 772 769 763 758 756 753 748 743 740 730 717 712 713 714 714 709 702 698 696 693 690 687 685 685 683 680 679 679 678 676 674 678 684 685 683 681 678 675 674 677 684 688 688 688 688 686 684